Lid_Strength_Index
5 8 9 7 7 7 7 8 9 7 6 7 7 7 6 5 5 5 4 4 4 3 2 2 1 -1 1 1 0 0 0 -1 1 1 2 2 2 1 1 0 0 0 0 0
7 9 6 6 6 7 7 8 9 7 6 7 7 8 6 5 5 5 4 4 4 3 3 2 1 2 1 1 1 1 1 0 1 1 1 1 1 1 1 0 0 0 0 0
8 7 5 6 7 8 8 9 9 9 7 6 7 9 7 6 5 4 4 4 3 3 3 2 2 2 1 0 0 1 0 0 0 0 1 1 1 1 1 1 1 1 0 0
7 6 7 7 8 7 9 7 7 8 9 11 7 12 8 7 6 5 5 4 4 3 3 2 2 1 1 1 0 0 0 0 0 0 1 1 2 3 2 1 1 1 0 0
8 7 7 8 7 6 8 6 7 8 9 9 9 11 9 7 8 6 5 5 4 3 3 4 3 2 1 1 1 0 -1 -1 0 0 1 2 2 1 1 1 1 1 1 0
7 5 6 7 6 6 6 7 7 8 9 13 10 11 11 9 8 6 5 5 4 4 5 4 3 2 2 2 1 1 1 1 -0 0 1 1 2 2 2 2 2 1 1 1
9 8 6 5 8 6 7 9 13 14 14 14 9 11 10 8 6 6 6 5 5 5 5 4 4 4 2 3 2 1 1 2 0 1 1 1 1 2 2 2 2 2 2 2
13 13 8 6 7 8 8 9 13 18 17 14 10 13 10 6 5 5 5 5 5 5 5 4 4 3 3 3 1 1 1 2 1 1 1 1 1 1 1 1 2 2 2 1
12 12 7 7 6 7 10 11 8 13 12 15 13 10 8 6 6 5 5 5 6 5 4 4 4 3 3 2 1 1 1 1 1 1 1 1 1 1 2 1 1 1 1 1
9 13 8 7 7 6 8 7 12 12 20 19 14 13 12 10 8 7 6 6 6 4 5 5 4 4 3 1 1 1 1 2 1 1 1 1 1 1 1 1 1 1 1 1
8 11 12 8 10 10 10 10 10 11 13 18 19 14 8 8 7 7 6 5 5 5 5 5 4 4 3 2 2 1 1 1 1 1 1 1 1 1 1 1 1 1 1 1
7 10 14 11 8 7 8 10 10 17 17 14 15 16 7 7 6 6 6 6 5 4 4 4 4 3 3 2 2 2 1 1 1 1 1 1 1 1 2 2 1 1 1 1
8 12 15 13 10 8 10 9 9 10 11 14 16 14 6 7 6 6 6 5 4 4 4 3 3 3 3 2 2 2 2 1 1 1 1 2 1 1 2 2 1 1 1 1
6 10 13 16 13 12 14 12 10 11 14 14 13 12 9 7 7 6 5 5 5 4 3 4 3 3 3 3 2 2 2 1 1 1 1 2 2 2 1 1 1 1 2 2
8 12 10 10 10 9 10 10 10 12 11 13 11 11 9 7 7 6 5 5 5 5 4 4 4 3 3 3 3 2 2 2 1 2 2 2 1 1 1 1 1 1 3 2
9 13 11 12 10 10 11 9 9 9 9 10 10 10 6 6 6 6 6 6 5 5 4 4 4 3 3 3 3 2 2 2 1 2 2 1 2 1 2 2 1 1 2 2
11 11 13 15 10 11 14 10 10 9 8 9 11 9 7 7 7 7 6 5 5 5 5 5 5 5 5 5 4 4 3 2 2 2 2 2 1 2 2 2 2 2 2 1
11 11 13 16 12 18 10 7 7 9 8 8 8 8 7 7 6 5 4 5 6 6 6 6 6 6 6 6 6 5 5 4 4 4 3 2 2 2 2 2 2 2 2 2
8 11 14 16 16 12 10 9 10 11 10 8 8 7 6 6 6 6 4 5 6 7 7 7 7 7 7 7 7 7 7 7 6 6 5 3 2 2 2 2 2 2 2 2
9 9 14 14 18 19 12 8 6 6 12 7 7 7 7 6 10 8 6 7 7 8 8 8 8 8 8 8 7 8 9 7 7 7 6 5 3 2 2 2 2 2 2 2
14 13 15 15 17 13 8 7 5 13 13 7 6 6 7 8 8 8 8 8 8 8 9 9 9 10 9 8 8 9 8 7 6 6 5 5 5 4 2 2 2 2 2 2
13 15 15 14 17 18 7 7 11 8 6 6 6 6 7 8 8 9 9 9 9 10 11 11 12 12 10 10 9 9 8 6 5 5 5 5 5 5 3 2 2 2 2 3
14 11 14 13 13 8 6 7 5 5 6 6 6 7 8 9 9 10 10 11 12 12 13 12 13 12 11 11 10 11 8 7 6 6 6 5 4 4 4 3 2 3 2 3
9 8 11 9 8 8 7 5 4 4 5 6 7 7 8 10 10 11 12 13 14 14 14 14 14 14 13 12 12 11 10 8 7 6 6 6 4 5 4 3 2 2 3 3
8 7 9 9 8 7 6 5 4 5 5 6 7 8 10 10 12 13 14 14 14 15 15 15 14 14 14 13 12 12 11 10 8 7 6 5 4 5 5 3 3 2 2 2
7 8 10 11 7 7 6 4 5 6 6 7 8 10 10 11 13 13 15 15 15 16 15 15 15 14 13 12 12 11 10 9 9 7 6 5 5 4 4 3 4 6 6 7